Weather in Drakino

Russia / Voronezh Oblast     51°08′17″N   39°24′02″E
temp.,
°C
wind,
m/s
gust,
m/s
humid.,
%
clouds,
%
prec.,
mm/h
press.,
hPa
HPBL,
m
28 september, tue
tue2800:00+9nnw3786100 0.1 1019419
03:00+9n4786100 0.2 1020349
06:00+9n4791100 0.1 1021491
09:00+8ne5882100 0.3 1022582
12:00+9ne5669100 0.0 1024911
15:00+8ne6673100 0.1 10251049
18:00+7ne5783100 0.1 1027763
21:00+7ne5876100 0.1 1029822
29 september, wed
wed2900:00+6ne4775100 0.0 1030567
03:00+6ne477810 0.0 1031434
06:00+3nne37855 0.0 1032166
09:00+7ne57605 0.0 1032538
12:00+11ne56425 0.0 10321311
15:00+12ne56375 0.0 10311521
18:00+8nne35485 0.0 103182
21:00+6ne36594 0.0 103395
30 september, thu
thu3000:00+5ne23635 0.0 103330
03:00+4nne226576 0.0 103331
06:00+3nne22715 0.0 103428
09:00+8ne34545 0.0 1035359
12:00+12ene34415 0.0 10341372
15:00+13ne33385 0.0 10331660
18:00+10ne22515 0.0 103318
21:00+7ne22595 0.0 103517
1 october, fri
fri100:00+6ene22655 0.0 103510
03:00+5ne11685 0.0 103610
06:00+5ne22724 0.0 103610
09:00+9ene22564 0.0 1036292
12:00+13e22435 0.0 10361149
15:00+14ne12415 0.0 10351500
18:00+11nne22535 0.0 103412
21:00+9ne11605 0.0 103510
2 october, sat
sat200:00+8ne11665 0.0 103510
03:00+7ene11715 0.0 103510
06:00+7e11765 0.0 103510
09:00+11e12615 0.0 1035249
12:00+15ese23505 0.0 10341177
15:00+15se434899 0.0 10331319
18:00+12se346150 0.0 103384
21:00+11ese357099 0.0 1034128